Theta_e
319 319 319 318 318 318 318 318 317 317 317 317 317 317 317 317 317 317 317 317 320 320 321 322 324 325 322 310 313 345 361 358 348 344 341 340 336 333 325 327 329 327 327 326 327 328 328
318 318 318 318 318 317 318 318 318 318 317 317 317 316 317 316 316 316 316 316 318 320 321 322 324 325 318 309 329 349 346 346 345 342 339 338 333 334 329 328 326 328 328 323 327 327 328
317 318 318 318 317 317 317 318 317 317 317 316 316 316 316 316 316 316 316 316 316 320 321 323 324 324 312 310 328 347 343 341 343 340 341 343 341 334 333 328 332 329 320 324 325 327 325
317 317 317 317 317 316 316 317 317 316 316 316 316 317 316 316 315 315 315 315 317 320 321 323 325 321 308 316 338 338 335 336 343 344 343 346 344 336 333 334 327 323 321 316 323 325 323
316 316 316 316 316 316 316 316 316 315 315 315 315 316 316 315 315 314 314 316 320 321 323 324 319 313 308 324 324 331 334 330 336 341 342 344 337 330 331 323 320 321 315 316 319 326 321
315 316 316 316 315 315 315 315 315 315 315 314 315 315 315 315 314 313 314 316 322 321 321 323 318 311 314 313 319 324 332 328 327 331 328 330 327 324 324 321 311 314 315 318 317 323 324
316 315 315 315 314 314 314 314 314 314 314 314 314 314 314 314 313 313 313 318 312 312 312 305 305 307 310 317 320 319 324 325 322 321 317 323 318 315 319 321 321 320 317 316 320 324 322
315 315 314 314 314 313 313 313 313 314 314 314 314 314 314 313 313 312 311 315 315 314 311 313 308 308 311 314 311 315 322 317 317 314 317 318 313 320 321 320 319 319 317 317 320 323 323
314 314 314 313 313 313 313 312 313 313 313 314 314 313 313 312 313 310 310 312 315 316 311 312 313 313 315 315 313 312 320 319 315 313 315 314 318 320 317 312 315 318 317 317 316 321 323
313 313 314 313 312 312 312 312 312 313 313 313 313 313 312 311 309 311 312 314 313 315 308 309 311 314 311 311 309 313 321 318 316 315 315 316 319 316 308 308 318 313 321 320 317 316 310
313 313 313 312 312 312 312 311 312 314 313 313 313 312 311 311 308 310 313 313 313 316 298 310 310 315 310 311 312 312 319 317 312 313 315 314 310 309 308 310 320 313 317 320 319 314 315
313 313 312 312 312 311 311 312 312 313 312 312 312 311 311 309 308 309 312 312 316 306 297 308 309 308 308 309 309 311 314 317 315 312 310 311 312 310 311 311 319 315 315 313 314 316 308
312 312 312 312 311 311 311 311 312 312 312 312 311 310 309 311 307 313 311 316 306 298 309 307 306 307 307 306 307 308 309 310 308 304 305 307 308 310 310 309 310 309 310 304 303 305 304
312 312 311 311 311 311 311 311 312 312 312 311 310 309 310 312 312 312 314 313 299 303 306 311 305 304 306 306 306 306 306 306 306 307 305 303 306 309 310 312 313 307 307 303 297 299 301
311 311 311 311 311 311 311 311 312 312 311 310 309 311 311 313 314 312 314 304 303 304 310 309 304 303 303 304 305 306 305 305 308 309 305 303 303 308 308 309 310 306 305 306 302 300 301
311 311 311 311 310 311 311 312 312 311 310 310 307 313 315 314 315 313 311 302 306 308 312 310 304 304 302 303 304 305 305 308 308 309 313 308 302 306 307 308 307 308 308 303 304 298 297
310 310 310 310 310 311 311 311 312 311 310 309 310 315 312 313 312 314 306 306 307 311 312 308 307 306 304 303 305 304 305 307 309 306 309 307 306 306 307 307 305 305 305 302 304 303 299
310 310 310 310 311 311 311 311 311 309 308 308 307 312 313 308 308 305 307 307 305 311 312 309 310 309 309 309 305 305 305 309 314 309 306 309 307 304 305 308 308 307 308 307 304 301 301
310 310 310 310 310 312 311 312 311 309 308 307 309 311 315 309 304 305 305 306 309 309 309 308 309 310 311 310 308 310 309 314 313 308 308 308 306 302 305 309 311 311 308 305 304 305 303
310 309 310 310 310 311 311 311 311 310 309 309 312 309 309 309 306 305 305 305 305 309 308 309 310 310 310 310 311 311 312 314 312 315 319 312 305 306 302 306 310 308 310 306 309 307 304
309 309 309 309 310 311 311 311 312 311 310 309 309 306 306 303 305 307 307 306 305 306 309 310 310 309 310 309 309 309 310 312 311 314 314 311 308 306 306 307 308 310 310 308 308 309 307
309 309 309 309 310 310 311 311 311 310 308 312 308 308 310 307 305 305 302 306 306 307 306 308 308 308 309 310 312 310 311 311 312 310 312 311 311 309 307 308 307 307 308 309 310 310 308
308 309 309 310 310 311 311 311 310 309 309 310 310 311 309 303 306 305 306 305 304 305 308 309 308 307 307 307 309 309 309 309 309 308 308 311 311 309 305 305 306 304 308 310 312 313 312
309 308 309 310 310 310 311 310 310 309 308 306 307 308 308 305 307 306 305 305 304 305 305 308 309 308 308 308 307 305 305 305 306 306 306 309 310 309 307 306 299 309 314 314 313 312 317
309 308 309 309 309 310 310 310 311 310 309 307 308 309 307 306 307 306 306 305 306 306 307 307 309 309 308 305 304 301 302 303 302 301 303 306 308 305 304 304 305 308 312 314 314 311 317
308 308 308 309 309 309 310 310 310 310 308 309 308 309 309 307 307 308 305 305 306 305 307 309 312 311 308 304 303 302 300 300 300 301 302 303 307 307 302 301 299 309 313 315 317 309 316
308 308 308 309 310 310 310 310 310 310 309 308 308 308 309 305 310 309 306 306 309 307 307 308 308 312 308 305 301 299 300 299 298 299 301 300 300 300 302 302 303 309 311 315 305 309 317
307 308 308 308 309 310 310 310 310 310 310 308 307 309 308 306 307 308 311 308 309 308 307 308 308 309 309 303 301 300 299 301 302 303 302 300 299 298 300 299 297 309 311 309 312 316 315
308 308 308 308 309 310 311 311 310 310 310 310 305 308 308 307 307 310 313 314 312 312 309 308 308 309 311 307 306 305 304 303 302 299 304 301 304 303 301 303 308 310 311 313 315 313 314
Wind_Speed
17 17 17 17 17 17 18 17 17 17 17 17 17 16 14 14 13 12 13 13 13 11 10 9 7 6 2 3 3 4 11 17 17 12 8 7 4 2 5 4 1 4 5 4 4 12 9
17 17 17 17 17 17 18 18 17 18 18 17 17 17 16 15 14 13 13 14 14 12 10 9 7 6 3 1 1 11 15 16 12 11 8 6 2 3 6 5 3 3 6 4 6 11 7
17 18 18 18 18 18 18 18 19 19 18 18 18 17 16 16 15 14 14 14 14 12 10 8 6 3 1 0 1 11 14 9 9 11 4 9 5 5 5 5 4 2 7 8 6 7 5
18 18 18 18 18 18 18 19 19 19 19 19 20 19 18 17 16 15 15 15 15 11 8 5 5 2 4 2 7 13 6 5 6 8 7 5 2 6 4 6 3 2 3 3 3 8 5
19 19 19 19 18 19 19 19 20 20 20 20 20 19 18 17 16 16 16 17 9 4 3 1 3 2 2 7 5 10 7 6 8 6 4 3 2 2 3 4 2 6 2 2 4 0 7
18 18 19 19 19 19 20 20 20 20 20 20 20 19 18 17 17 17 19 7 2 1 2 3 2 4 3 3 5 8 5 9 4 7 3 4 1 3 3 3 5 4 3 3 4 6 7
19 19 19 19 19 20 20 20 21 21 21 21 21 20 19 17 16 15 10 2 3 3 2 4 1 2 3 2 4 5 7 7 3 4 5 4 4 5 6 6 3 4 5 7 5 4 7
20 20 19 20 20 20 20 20 21 21 22 22 22 21 18 17 15 12 3 2 1 3 5 5 5 6 5 2 1 4 10 9 7 6 4 4 5 5 5 3 6 7 8 12 4 1 5
21 20 20 21 21 20 21 21 21 22 22 22 22 21 19 17 15 2 2 3 3 3 3 3 4 4 3 7 4 6 12 6 4 6 6 5 2 5 3 4 5 9 10 8 3 5 3
20 21 21 22 22 22 22 22 22 22 23 21 21 20 18 19 3 1 4 3 4 4 2 3 4 3 6 4 4 2 10 4 4 7 6 6 3 4 2 4 5 3 9 15 6 4 4
20 20 21 22 23 23 23 24 24 22 24 22 20 19 16 9 4 4 2 5 3 3 3 3 4 2 3 6 5 4 2 2 6 5 4 1 3 2 8 1 8 4 4 12 8 1 9
20 21 21 22 23 24 24 25 25 24 25 24 21 17 15 2 2 5 4 2 2 2 4 3 4 5 7 2 2 3 3 2 2 4 2 6 2 4 4 4 7 6 8 7 4 3 5
20 21 22 23 23 24 25 25 27 27 26 26 23 19 7 2 1 2 3 3 2 4 2 5 4 5 6 6 5 3 7 9 7 5 6 3 7 3 4 5 7 4 4 0 1 3 3
21 22 22 23 25 25 25 26 28 28 28 28 26 17 8 4 3 4 3 2 5 2 4 1 2 4 8 7 5 3 5 9 2 2 1 4 12 7 6 9 11 7 6 4 4 3 4
22 22 23 23 24 25 26 28 29 29 29 28 21 2 2 3 9 3 3 5 4 5 1 2 3 4 5 4 4 7 7 7 8 11 8 2 6 2 4 1 3 6 5 2 4 2 4
22 23 24 24 25 26 27 27 30 30 30 27 3 2 2 3 8 3 3 4 3 3 3 1 4 3 8 8 7 8 8 3 6 13 12 6 5 1 2 2 7 4 7 4 1 3 3
21 22 24 24 25 27 27 27 30 31 32 17 2 2 6 3 4 2 8 5 4 5 4 2 1 1 2 6 8 6 3 1 0 5 5 8 5 4 3 2 4 5 4 6 3 3 3
21 22 23 23 25 28 28 28 29 31 30 3 2 2 3 3 3 1 5 4 1 2 2 3 2 3 4 6 6 7 8 3 2 7 9 7 4 6 4 2 4 3 3 5 4 6 1
21 21 22 23 24 25 28 28 28 30 23 5 2 1 2 3 3 3 1 2 3 4 3 2 3 3 0 3 3 4 5 4 4 6 8 9 7 5 2 5 5 3 4 3 6 3 6
20 21 21 22 24 25 27 27 28 29 25 2 2 2 2 2 2 2 3 2 2 2 4 3 3 2 2 2 0 5 5 3 1 3 3 6 3 6 10 7 3 5 6 6 4 4 8
20 20 21 22 23 25 27 28 28 30 25 2 4 3 3 3 2 1 1 1 2 3 2 2 3 8 6 6 2 4 3 3 3 2 2 4 5 3 1 2 4 5 10 10 7 2 5
19 20 21 22 22 24 25 27 28 32 25 3 3 2 1 2 1 3 0 2 1 1 2 3 5 1 6 5 5 8 6 4 1 2 3 1 3 2 3 2 1 4 3 4 2 2 3
19 20 20 21 21 22 24 25 27 29 19 4 2 0 3 2 1 3 2 1 2 3 1 1 1 2 4 3 2 4 4 4 3 1 3 1 5 5 4 1 1 5 7 5 3 1 1
18 20 20 21 21 22 22 23 24 24 18 2 2 2 3 1 1 2 2 2 3 2 1 2 3 0 2 1 4 3 3 1 2 4 3 5 4 1 2 5 8 6 4 4 7 3 3
18 19 19 20 21 21 22 22 21 22 23 1 2 3 3 1 2 1 4 3 3 1 2 2 4 4 4 3 2 1 1 0 3 5 1 2 4 3 5 9 3 3 6 8 6 4 4
18 18 19 19 21 21 21 21 21 20 21 2 2 2 2 3 2 3 3 3 3 2 2 2 2 3 1 2 1 4 4 1 3 3 4 5 3 4 4 7 12 3 7 2 4 5 10
17 18 18 19 19 20 20 20 20 19 18 6 2 4 2 3 1 3 2 3 1 0 2 2 5 2 3 2 2 3 4 1 5 5 4 3 2 11 9 9 2 3 1 4 9 5 17
17 17 18 19 20 19 19 19 19 18 18 9 3 4 3 3 6 3 3 1 0 1 2 4 3 2 0 2 2 3 4 3 3 1 2 5 6 5 4 7 13 2 4 7 6 13 14
17 17 18 19 20 19 19 18 18 16 16 12 2 2 2 4 4 3 8 11 7 5 3 0 3 2 1 1 2 2 3 3 2 3 1 4 3 0 4 3 5 1 2 8 12 15 12
Wind_Direction
20 20 20 19 18 15 15 14 12 9 3 358 354 352 349 345 343 339 329 324 323 323 316 313 315 314 255 221 270 148 146 139 149 150 169 172 184 279 348 333 234 253 334 346 144 150 168
17 17 16 14 13 12 9 9 5 6 3 359 355 351 347 345 341 336 329 321 319 318 314 307 309 308 261 254 67 154 150 149 162 170 166 200 252 316 290 304 268 309 319 105 133 134 149
17 14 12 10 9 7 5 2 3 2 3 359 355 352 348 343 340 335 328 319 311 308 301 299 302 283 234 232 102 153 145 166 178 182 171 228 264 266 325 284 307 266 120 103 100 135 134
16 14 11 7 5 3 2 359 358 358 356 355 351 347 345 343 339 333 326 316 304 292 285 277 279 241 249 49 143 156 148 123 162 213 251 295 238 276 254 314 277 40 87 131 92 171 142
14 12 9 6 4 2 359 358 354 354 353 353 351 347 343 341 337 332 324 316 307 266 230 299 203 271 234 145 169 173 178 176 177 214 265 293 359 318 281 283 99 41 62 124 136 91 153
14 9 10 6 3 1 358 355 352 350 350 350 348 345 341 338 336 332 324 292 322 218 211 212 229 243 199 127 140 143 187 145 159 172 228 218 223 257 230 3 36 347 329 253 208 173 193
10 9 9 5 3 0 357 354 349 349 347 347 344 342 339 336 333 332 335 212 221 171 182 225 146 297 290 311 157 150 166 171 159 192 207 193 252 299 337 313 309 254 235 258 265 239 226
9 7 5 4 2 359 355 352 349 346 344 342 339 339 336 331 327 316 262 227 99 1 300 222 237 274 259 294 255 143 168 167 181 193 169 204 258 271 293 268 240 246 251 257 272 242 254
6 4 3 1 360 358 354 351 348 343 340 339 336 337 335 329 323 161 254 231 346 315 280 282 200 214 207 182 224 196 179 145 170 190 199 245 265 305 272 329 227 232 233 258 254 152 101
6 2 1 359 357 355 352 349 345 338 336 336 335 336 335 328 266 42 237 133 301 223 308 229 213 218 154 186 214 190 184 157 169 221 178 248 270 251 308 286 208 254 233 260 349 343 337
3 3 1 358 355 353 349 345 341 335 336 336 334 333 330 334 322 218 65 319 144 201 290 121 157 52 128 200 121 172 190 131 199 182 192 176 192 244 305 330 185 316 3 233 261 358 313
3 1 360 357 354 351 346 343 341 336 335 333 330 326 326 200 222 263 311 305 209 233 248 156 131 156 159 179 121 108 161 68 64 179 268 266 320 274 253 167 193 119 99 79 95 283 264
2 0 359 356 354 350 346 343 340 337 334 331 327 318 283 229 285 336 298 184 206 232 13 162 178 176 191 167 180 139 168 183 202 200 230 232 235 214 213 230 135 169 177 18 222 197 284
360 358 358 356 352 350 347 343 340 337 335 332 326 316 198 222 308 319 197 154 224 238 246 14 120 120 195 164 196 140 157 204 172 170 132 272 250 205 166 241 271 189 227 251 289 273 340
357 356 355 354 353 350 347 344 342 339 336 333 319 160 183 255 212 282 176 199 231 207 324 328 130 166 174 183 202 180 200 211 204 185 218 232 255 285 238 225 232 154 197 37 139 121 251
356 355 354 353 352 350 348 344 344 340 338 334 316 305 43 19 163 208 181 226 240 241 323 237 232 215 173 177 182 190 189 177 206 194 207 184 267 193 70 153 62 255 125 175 202 243 273
356 356 353 353 350 350 349 346 346 344 341 334 266 170 13 134 189 192 201 219 249 245 234 300 298 188 172 184 206 183 161 128 77 164 192 159 233 185 224 219 173 145 176 64 104 325 285
356 356 354 353 350 351 350 346 347 349 342 18 313 148 59 245 158 321 204 189 204 270 174 292 253 258 213 168 170 193 201 227 354 177 183 191 210 245 288 311 241 259 148 181 224 169 53
357 356 354 354 352 349 351 348 348 351 356 318 35 44 102 276 186 190 209 224 254 247 231 245 274 240 293 181 181 193 189 115 53 189 168 169 215 213 149 174 182 210 128 107 107 134 171
356 355 355 354 353 351 353 351 349 350 351 268 291 134 90 66 15 136 159 155 245 247 252 255 276 202 176 173 298 169 167 149 98 136 70 168 159 238 229 216 148 185 178 169 252 184 157
356 356 355 355 355 355 355 355 351 350 349 269 5 66 359 160 144 90 280 150 236 277 202 233 227 229 198 194 200 192 176 182 133 61 95 226 233 209 199 311 237 213 187 178 208 184 232
356 355 356 355 356 357 358 359 357 354 345 72 17 345 28 82 267 190 224 171 251 255 282 213 241 196 199 216 208 200 177 216 163 110 103 76 186 223 170 113 159 192 138 164 176 144 150
353 356 355 356 357 357 360 2 4 4 355 39 18 174 287 19 88 194 132 245 210 302 125 258 98 135 156 71 41 38 59 61 77 49 96 86 158 180 211 10 138 226 199 188 136 138 219
352 354 355 357 358 359 359 3 5 10 17 331 21 295 309 73 309 64 342 293 275 275 254 16 16 116 52 323 143 125 82 51 87 72 7 132 115 317 179 160 221 41 286 219 131 92 146
349 352 353 356 357 358 358 1 4 7 9 334 355 327 351 346 330 149 345 336 295 298 165 89 43 351 322 36 80 45 14 240 97 41 312 319 158 154 219 219 32 220 182 171 203 134 153
347 349 351 355 355 355 357 359 1 4 6 357 11 317 320 315 84 316 320 352 3 2 127 74 65 334 39 67 141 188 211 165 203 164 62 117 80 251 164 235 238 92 138 219 185 184 161
346 348 348 352 352 350 352 356 358 360 2 352 334 2 292 314 298 308 353 343 358 0 312 320 346 13 356 121 155 196 221 332 238 238 214 169 192 226 218 242 203 141 115 175 205 125 156
345 345 345 346 349 347 348 351 355 357 360 359 318 9 352 306 283 259 302 339 10 357 339 24 227 148 164 168 202 163 215 170 234 148 206 213 198 202 205 232 243 78 157 218 101 116 123
342 344 343 343 344 344 344 346 349 352 355 2 303 14 326 231 297 305 278 276 259 286 291 0 11 261 12 99 183 145 177 185 191 216 141 220 292 224 273 15 354 337 50 118 121 113 111